Tracking 31027 objects as of 19-Jul-2025
HD Live streaming from Space Station
objects crossing your sky now

STARLINK-5683

Track STARLINK-5683 now!
10-day predictions
STARLINK-5683 is classified as:


NORAD ID: 55452
Int'l Code: 2023-015D
Perigee: 565.5 km
Apogee: 567.0 km
Inclination: 43.0 °
Period: 95.8 minutes
Semi major axis: 6937 km
RCS: Unknown
Launch date: February 2, 2023
Source: United States (US)
Launch site: AIR FORCE EASTERN TEST RANGE (AFETR)
Your satellite tracking list
GEOTAIL
Track 1 satellite(s)




NASA's NSSDC Master Catalog

Two Line Element Set (TLE):
1 55452U 23015D   25199.57818128  .00000973  00000-0  87122-4 0  9991
2 55452  43.0028 158.4247 0001125 270.4959  89.5755 15.02530923135532
Source of the keplerian elements: AFSPC